Location: Unspecified
(0.0000°N, 0.0000°E)
Time: 00:43:33
(UTC+00:00)

Vanguard 2 Rocket - Visible Passes

Search period start: 16 September 2019 00:00
Search period end: 26 September 2019 00:00
Orbit: 554 x 3327 km, 32.9° (Epoch: 15 September)

Date Brightness Start Highest point End Pass type
(mag) Time Alt. Az. Time Alt. Az. Time Alt. Az.
16 Sep 10.1 01:39:51 19° ENE 01:39:51 19° ENE 01:44:39 10° E visible
16 Sep 8.5 03:45:43 49° NW 03:49:57 86° NE 04:07:42 10° SE visible
17 Sep 8.6 02:50:06 60° NE 02:50:06 60° NE 03:04:30 10° ESE visible
17 Sep 9.3 04:55:57 17° W 05:05:52 53° SSW 05:24:12 10° SE visible
18 Sep 9.8 01:54:26 26° E 01:54:26 26° E 02:00:53 10° ESE visible
18 Sep 8.5 04:00:18 47° W 04:04:17 68° SSW 04:21:42 10° SE visible
19 Sep 8.3 03:04:34 77° SE 03:04:34 77° SE 03:18:59 10° SE visible
19 Sep 9.5 05:10:25 12° W 05:20:56 38° SSW 05:37:43 10° SE visible
20 Sep 9.5 02:08:47 33° ESE 02:08:47 33° ESE 02:16:04 10° ESE visible
20 Sep 8.8 04:14:37 36° WSW 04:19:01 47° SSW 04:35:20 10° SE visible
21 Sep 8.5 03:18:47 60° S 03:18:47 60° S 03:32:55 10° SE visible
21 Sep 9.8 05:25:51 10° WSW 05:36:28 28° SSW 05:51:14 10° SSE visible
22 Sep 9.3 02:22:53 36° SE 02:22:53 36° SE 02:30:29 10° SE visible
22 Sep 9.2 04:28:42 24° WSW 04:34:12 33° SSW 04:48:46 10° SE visible
23 Sep 10.3 01:26:55 13° ESE 01:26:55 13° ESE 01:28:02 10° ESE visible
23 Sep 8.8 03:32:44 41° SSW 03:32:44 41° SSW 03:46:28 10° SE visible
24 Sep 9.3 02:36:44 33° SSE 02:36:44 33° SSE 02:44:21 10° SE visible
24 Sep 9.6 04:42:33 14° WSW 04:49:49 24° SSW 05:02:08 10° SSE visible
25 Sep 10.2 01:40:40 15° SE 01:40:40 15° SE 01:42:23 10° SE visible
25 Sep 9.2 03:46:29 27° SSW 03:47:56 27° SSW 03:59:45 10° SSE visible
